Regional Weather Roundup
Issued by NWS

Home | Current Version | Previous Version | Text Only | Print | Product List | Glossary Off
Versions: 1 2 3 4 5 6 7 8 9 10 11 12 13 14 15 16 17 18 19 20 21 22 23 24 25 26 27 28 29 30 31 32 33 34 35 36 37 38 39 40 41 42 43 44 45 46 47 48 49 50

000
ASUS43 KDMX 170001
RWRIA

WEATHER ROUNDUP FOR IOWA
NATIONAL WEATHER SERVICE DES MOINES IA
700 PM CDT MON OCT 16 2017

NOTE: "FAIR" INDICATES FEW OR NO CLOUDS BELOW 12,000 FEET WITH NO
SIGNIFICANT WEATHER AND/OR OBSTRUCTIONS TO VISIBILITY.

* - THESE STATIONS ARE NOT NWS STATIONS...THUS NOT UNDER NWS
QUALITY CONTROL.  THEY ALSO DO NOT REPORT WEATHER SUCH
AS PRECIPITATION OR FOG.

IAZ001>003-012>014-020>022-031>034-043>046-170100-
   NORTHWEST IOWA

CITY           SKY/WX    TMP DP  RH WIND       PRES   REMARKS
CARROLL *      CLEAR     63  43  48 S8        30.10R
CHEROKEE *     CLEAR     60  40  48 S9        30.05F
DENISON *      CLEAR     63  39  42 S8        30.11S
LE MARS *      PTCLDY    63  39  42 S7        30.03S
ORANGE CITY *  CLEAR     63  43  48 S7        30.04S
SHELDON *      CLEAR     64  37  36 S7G14     30.02S
SIOUX CITY     CLEAR     66  39  37 S8        30.05S
6HR MIN TEMP:  65; 6HR MAX TEMP:  75;

SPENCER        CLOUDY    61  37  41 S8        30.05S
6HR MIN TEMP:  61; 6HR MAX TEMP:  71;

STORM LAKE *   CLEAR     59  37  44 S8        30.08R
$$

IAZ055>058-069>071-079>083-090>094-170100-
   SOUTHWEST IOWA

CITY           SKY/WX    TMP DP  RH WIND       PRES   REMARKS
ATLANTIC *     CLEAR     59  41  51 S6        30.13S
AUDUBON *      CLEAR     63  39  42 S7        30.13S
CLARINDA *     CLEAR     61  39  44 S5        30.18S
COUNCIL BLFS * CLEAR     64  39  39 S10       30.12S
CRESTON *      CLEAR     57  43  58 S10       30.17S
HARLAN  *      CLEAR     63  39  42 S9        30.15S
LAMONI         CLEAR     60  40  47 S9        30.19F
6HR MIN TEMP:  60; 6HR MAX TEMP:  68;

RED OAK *      CLEAR     61  39  44 S7        30.15S
SHENANDOAH *   CLEAR     63  39  42 S9        30.16S
$$

IAZ047>049-059>061-072>074-084-170100-
   CENTRAL IOWA

CITY           SKY/WX    TMP DP  RH WIND       PRES   REMARKS
AMES           CLEAR     58  41  53 S10       30.13S
6HR MIN TEMP:  57; 6HR MAX TEMP:  69;

ANKENY *       CLEAR     61  39  44 S5        30.16S
BOONE *        CLEAR     61  37  41 S8        30.11F
CHARITON *     CLEAR     57  37  47 S8        30.18S
DES MOINES     PTCLDY    61  39  44 S8        30.15S
6HR MIN TEMP:  61; 6HR MAX TEMP:  69;

GRINNELL*      CLEAR     57  36  46 S6        30.18S
KNOXVILLE *    CLEAR     59  37  44 S7        30.16S
MARSHALLTOWN   CLEAR     58  37  45 S8        30.14S
6HR MIN TEMP:  58; 6HR MAX TEMP:  66;

NEWTON *       CLEAR     57  37  47 S8        30.16S
PELLA *        CLEAR     58  37  45 S6        30.18F
PERRY *          N/A     59  36  42 S7        30.13S
$$

IAZ004>006-015-016-023>025-035-036-170100-
   NORTH CENTRAL IOWA

CITY           SKY/WX    TMP DP  RH WIND       PRES   REMARKS
ALGONA *       CLEAR     59  39  47 S8        30.07S
CLARION *      CLEAR     57  39  51 S9        30.10R
ESTHERVILLE    CLEAR     60  38  43 S12       30.04S
6HR MIN TEMP:  60; 6HR MAX TEMP:  68;

FORT DODGE *   CLEAR     60  39  45 S9        30.10R
MASON CITY     CLEAR     52  37  56 S9        30.10F
6HR MIN TEMP:  52; 6HR MAX TEMP:  66;

FOREST CITY *    N/A     55  37  50 S9        30.08S
WEBSTER CITY * CLEAR     59  37  44 S8        30.09R
IOWA FALLS *     N/A     57  39  51 S7        30.13S
$$

IAZ007>011-017>019-026>030-037>042-050>054-066-170100-
   NORTHEAST IOWA

CITY           SKY/WX    TMP DP  RH WIND       PRES   REMARKS
CEDAR RAPIDS   CLEAR     55  35  47 S7        30.17F
6HR MIN TEMP:  55; 6HR MAX TEMP:  66;

CHARLES CITY * CLEAR     57  36  44 S7        30.11F
CLINTON *      CLEAR     55  37  50 S6        30.20F
DECORAH *      CLEAR     57  36  44 S6        30.11F
DUBUQUE        CLEAR     51  37  58 S5        30.18S
6HR MIN TEMP:  51; 6HR MAX TEMP:  62;

MONTICELLO *   CLEAR     54  37  54 S7        30.17S
OELWEIN *      CLEAR     55  37  50 S7        30.15S
WATERLOO       CLEAR     55  36  48 S7        30.13F
6HR MIN TEMP:  55; 6HR MAX TEMP:  66;

$$

IAZ064-065-067-068-078-170100-
   EAST CENTRAL IOWA

CITY           SKY/WX    TMP DP  RH WIND       PRES   REMARKS
DAVENPORT      CLEAR     53  37  54 S7        30.23S
6HR MIN TEMP:  53; 6HR MAX TEMP:  66;

IOWA CITY      CLEAR     57  38  48 S7        30.20F
6HR MIN TEMP:  57; 6HR MAX TEMP:  68;

MUSCATINE *    CLEAR     55  39  54 S7        30.21S
QUAD CITIES    CLEAR     52  40  63 S5        30.21S
6HR MIN TEMP:  52; 6HR MAX TEMP:  66;

$$

IAZ062-063-075>077-085>089-095>099-170100-
   SOUTHEAST IOWA

CITY           SKY/WX    TMP DP  RH WIND       PRES   REMARKS
BURLINGTON     CLEAR     57  38  48 CALM      30.22F
6HR MIN TEMP:  55; 6HR MAX TEMP:  67;

FAIRFIELD *    CLEAR     59  36  41 S8        30.20F
FORT MADISON * CLEAR     55  41  58 S3        30.24R
KEOKUK *       CLEAR     57  39  51 CALM      30.23R
OSKALOOSA *      N/A     52  39  61 S7        30.19S
OTTUMWA        CLEAR     55  38  52 S7        30.19F
6HR MIN TEMP:  55; 6HR MAX TEMP:  67;

WASHINGTON *   CLEAR     57  37  47 S7        30.21F
$$

ABBREVIATIONS USED IN REMARKS
   TC - TEMPERATURES IN CELSIUS
  WCI - WIND CHILL INDEX
   HX - HEAT INDEX
  VSB - VISIBILITY
$$





USA.gov is the U.S. government's official web portal to all federal, state and local government web resources and services.